This is the latest recevied weather packets stored in our database for station/object N9DMT-13. If no packets are shown the sender has not sent any weather packets the latest 10 day(s).
| Time | Temp. | Humidity | Pressure | Rain* | Wind** | Luminosity | Snow |
|---|---|---|---|---|---|---|---|
| 1777521146 | 2.22° C | 85% | 985 hPa | 0 mm | - | - | - |
| 1777520845 | 2.22° C | 85% | 985.2 hPa | 0 mm | - | - | - |
| 1777520545 | 2.22° C | 84% | 985.1 hPa | 0 mm | - | - | - |
| 1777520244 | 2.22° C | 84% | 985.1 hPa | 0 mm | - | - | - |
| 1777519943 | 2.22° C | 84% | 985 hPa | 0 mm | - | - | - |
| 1777519642 | 2.78° C | 83% | 985.2 hPa | 0 mm | - | - | - |
| 1777519341 | 2.78° C | 82% | 985 hPa | 0 mm | - | - | - |
| 1777519041 | 2.78° C | 82% | 985.1 hPa | 0 mm | - | - | - |
| 1777518740 | 3.33° C | 82% | 985.2 hPa | 0 mm | - | - | - |
| 1777518439 | 3.33° C | 81% | 985.1 hPa | 0 mm | - | - | - |
| 1777518139 | 3.33° C | 81% | 985 hPa | 0 mm | - | - | - |
| 1777517838 | 3.33° C | 81% | 984.9 hPa | 0 mm | - | - | - |
| 1777517537 | 3.89° C | 80% | 985.1 hPa | 0 mm | - | - | - |
| 1777517237 | 3.89° C | 79% | 985.1 hPa | 0 mm | - | - | - |
| 1777516936 | 3.89° C | 77% | 984.9 hPa | 0 mm | - | - | - |
| 1777516636 | 3.89° C | 77% | 984.8 hPa | 0 mm | - | - | - |
| 1777516335 | 4.44° C | 78% | 984.8 hPa | 0 mm | - | - | - |
| 1777516035 | 4.44° C | 77% | 984.8 hPa | 0 mm | - | - | - |
| 1777515734 | 4.44° C | 77% | 984.9 hPa | 0 mm | - | - | - |
| 1777515433 | 4.44° C | 74% | 984.7 hPa | 0 mm | - | - | - |
| 1777515132 | 5° C | 74% | 984.7 hPa | 0 mm | - | - | - |
| 1777514831 | 5° C | 72% | 984.9 hPa | 0 mm | - | - | - |
| 1777514530 | 5.56° C | 74% | 984.6 hPa | 0 mm | - | - | - |
| 1777514230 | 5.56° C | 72% | 984.6 hPa | 0 mm | - | - | - |
| 1777513929 | 5.56° C | 74% | 984.7 hPa | 0 mm | - | - | - |
* Rain latest hour (hover to see other rain measurements)
** Current wind speed in m/s (hover to see current wind gust speed)